Change the Weather History Date:

Monday, April 21, 2014

  Actual Average Record
Temperature  
Mean Temperature 48 °F -  
Max Temperature 71 °F 55 °F 75 °F (2012)
Min Temperature 24 °F 31 °F 24 °F (2014)
Degree Days  
Heating Degree Days 18    
Moisture  
Dew Point -8 °F    
Average Humidity 12    
Maximum Humidity 13    
Minimum Humidity 10    
Precipitation  
Precipitation 0.00 in - - ()
Sea Level Pressure  
Sea Level Pressure 30.04 in    
Wind  
Wind Speed 5 mph (SSW)    
Max Wind Speed 13 mph    
Max Gust Speed 18 mph    
Visibility 10 miles    
Events      
Averages and records for this station are not official NWS values.
T = Trace of Precipitation, MM = Missing Value Source: NWS Daily Summary

Daily Weather History Graph

Daily Weather History Graph

Search for Another Location

Airport or City:

Trip Planner

Search our weather history database for the weather conditions in past years. The results will help you decide how hot, cold, wet, or windy it might be!

Date:

Astronomy

Apr. 21, 2014 Rise Set
Actual Time 5:50 AM EDT 7:32 PM EDT
Civil Twilight 5:20 AM EDT 8:03 PM EDT
Nautical Twilight 4:43 AM EDT 8:40 PM EDT
Astronomical Twilight 4:04 AM EDT 9:19 PM EDT
Moon 1:03 AM EDT (4/21) 11:11 AM EDT (4/21)
Length of Visible Light 14h 42m
Length of Day
13h 42m
Waning Gibbous, 58% of the Moon is Illuminated
Apr 21
Waning Gibbous
Apr 22
Last Quarter
Apr 29
New
May 6
First Quarter
May 14
Full

Hourly Weather History & Observations

Time (EDT) Temp. Windchill Dew Point Humidity Pressure Visibility Wind Dir Wind Speed Gust Speed Precip Events Conditions
12:15 AM 28.4 °F 24.6 °F -18.4 °F 12% 30.32 in 10.0 mi South 3.5 mph - N/A   Clear
12:35 AM 26.6 °F 22.6 °F -18.4 °F 13% 30.31 in 10.0 mi SSW 3.5 mph - N/A   Clear
12:55 AM 28.4 °F - -18.4 °F 12% 30.29 in 10.0 mi Calm Calm - N/A   Clear
1:15 AM 26.6 °F - -20.2 °F 12% 30.29 in 10.0 mi Calm Calm - N/A   Clear
1:35 AM 26.6 °F 22.6 °F -20.2 °F 12% 30.27 in 10.0 mi SSW 3.5 mph - N/A   Clear
1:55 AM 26.6 °F 22.6 °F -20.2 °F 12% 30.26 in 10.0 mi SW 3.5 mph - N/A   Clear
2:15 AM 26.6 °F 21.2 °F -20.2 °F 12% 30.25 in 10.0 mi SSW 4.6 mph - N/A   Clear
2:35 AM 26.6 °F - -20.2 °F 12% 30.24 in 10.0 mi Calm Calm - N/A   Clear
2:55 AM 24.8 °F - -20.2 °F 13% 30.24 in 10.0 mi Calm Calm - N/A   Clear
3:15 AM 24.8 °F - -20.2 °F 13% 30.23 in 10.0 mi Calm Calm - N/A   Clear
3:35 AM 24.8 °F 20.5 °F -22.0 °F 12% 30.22 in 10.0 mi SSE 3.5 mph - N/A   Clear
3:55 AM 24.8 °F - -20.2 °F 13% 30.22 in 10.0 mi Calm Calm - N/A   Clear
4:15 AM 24.8 °F 20.5 °F -20.2 °F 13% 30.20 in 10.0 mi South 3.5 mph - N/A   Clear
4:35 AM 24.8 °F - -20.2 °F 13% 30.20 in 10.0 mi Calm Calm - N/A   Clear
4:55 AM 26.6 °F 21.2 °F -18.4 °F 13% 30.19 in 10.0 mi SSW 4.6 mph - N/A   Clear
5:15 AM 28.4 °F - -18.4 °F 12% 30.19 in 10.0 mi Calm Calm - N/A   Clear
5:35 AM 26.6 °F 22.6 °F -20.2 °F 12% 30.19 in 10.0 mi South 3.5 mph - N/A   Clear
5:55 AM 28.4 °F 24.6 °F -18.4 °F 12% 30.19 in 10.0 mi SSW 3.5 mph - N/A   Clear
6:15 AM 30.2 °F 23.4 °F -16.6 °F 13% 30.18 in 10.0 mi SW 6.9 mph - N/A   Clear
6:35 AM 32.0 °F - -16.6 °F 12% 30.19 in 10.0 mi Calm Calm - N/A   Clear
6:55 AM 33.8 °F - -14.8 °F 12% 30.19 in 10.0 mi Calm Calm - N/A   Clear
7:15 AM 35.6 °F 31.7 °F -11.2 °F 13% 30.19 in 10.0 mi South 4.6 mph - N/A   Clear
7:35 AM 37.4 °F 32.8 °F -11.2 °F 12% 30.18 in 10.0 mi SSW 5.8 mph - N/A   Clear
7:55 AM 39.2 °F 35.9 °F -11.2 °F 11% 30.18 in 10.0 mi SSW 4.6 mph - N/A   Clear
8:15 AM 42.8 °F 38.0 °F -7.6 °F 12% 30.16 in 10.0 mi SSW 8.1 mph - N/A   Clear
8:35 AM 46.4 °F 41.9 °F -5.8 °F 11% 30.15 in 10.0 mi SSW 9.2 mph - N/A   Clear
8:55 AM 48.2 °F - -4.0 °F 11% 30.14 in 10.0 mi SW 12.7 mph 17.3 mph N/A   Clear
9:15 AM 51.8 °F - -2.2 °F 11% 30.14 in 10.0 mi SW 10.4 mph - N/A   Clear
9:35 AM 51.8 °F - -0.4 °F 12% 30.13 in 10.0 mi SW 6.9 mph - N/A   Clear
9:55 AM 53.6 °F - -0.4 °F 11% 30.12 in 10.0 mi SSW 6.9 mph - N/A   Clear
10:15 AM 57.2 °F - 1.4 °F 10% 30.12 in 10.0 mi South 6.9 mph - N/A   Clear
10:35 AM 59.0 °F - 3.2 °F 11% 30.11 in 10.0 mi SSW 12.7 mph - N/A   Clear
10:55 AM 60.8 °F - 3.2 °F 10% 30.10 in 10.0 mi SSW 10.4 mph - N/A   Clear
11:15 AM 62.6 °F - 6.8 °F 11% 30.09 in 10.0 mi SSW 9.2 mph 17.3 mph N/A   Clear
11:35 AM 64.4 °F - 8.6 °F 11% 30.07 in 10.0 mi SSW 11.5 mph - N/A   Clear
11:55 AM 64.4 °F - 8.6 °F 11% 30.06 in 10.0 mi SSW 11.5 mph - N/A   Clear
12:15 PM 68.0 °F - 10.4 °F 11% 30.04 in 10.0 mi SW 10.4 mph 17.3 mph N/A   Clear
12:35 PM 66.2 °F - 8.6 °F 11% 30.03 in 10.0 mi SW 8.1 mph 16.1 mph N/A   Clear
12:55 PM 69.8 °F - 10.4 °F 10% 30.02 in 10.0 mi SSW 11.5 mph 17.3 mph N/A   Clear
1:15 PM 69.8 °F - 12.2 °F 11% 30.00 in 10.0 mi SW 9.2 mph - N/A   Clear
1:35 PM 71.6 °F - 12.2 °F 10% 29.99 in 10.0 mi South 10.4 mph - N/A   Clear
1:55 PM 71.6 °F - 12.2 °F 10% 29.97 in 10.0 mi South 10.4 mph - N/A   Clear
2:15 PM 71.6 °F - 12.2 °F 10% 29.96 in 10.0 mi South 9.2 mph - N/A   Clear
2:35 PM 71.6 °F - 12.2 °F 10% 29.95 in 10.0 mi South 8.1 mph 18.4 mph N/A   Clear
2:55 PM - - - N/A% 29.93 in 10.0 mi South 10.4 mph - N/A   Clear
3:15 PM 68.0 °F - - N/A% 29.92 in 10.0 mi SSE 10.4 mph 16.1 mph N/A   Clear
3:35 PM 66.2 °F - - N/A% 29.91 in 10.0 mi SSE 9.2 mph 16.1 mph N/A   Clear
3:55 PM 66.2 °F - - N/A% 29.90 in 10.0 mi SSE 9.2 mph - N/A   Clear
4:15 PM 66.2 °F - - N/A% 29.90 in 10.0 mi South 8.1 mph - N/A   Clear
4:35 PM 64.4 °F - - N/A% 29.89 in 10.0 mi South 6.9 mph - N/A   Clear
4:55 PM 64.4 °F - - N/A% 29.89 in 10.0 mi South 9.2 mph - N/A   Clear
5:15 PM 64.4 °F - - N/A% 29.88 in 10.0 mi SE 6.9 mph - N/A   Clear
5:35 PM 64.4 °F - - N/A% 29.87 in 10.0 mi South 10.4 mph - N/A   Clear
5:55 PM 62.6 °F - - N/A% 29.87 in 10.0 mi South 8.1 mph - N/A   Clear
6:15 PM 60.8 °F - - N/A% 29.86 in 10.0 mi SE 6.9 mph - N/A   Clear
6:35 PM 59.0 °F - - N/A% 29.86 in 10.0 mi SSE 5.8 mph - N/A   Clear
6:55 PM 57.2 °F - - N/A% 29.85 in 10.0 mi SSE 4.6 mph - N/A   Clear
7:15 PM 57.2 °F - - N/A% 29.84 in 10.0 mi South 3.5 mph - N/A   Clear
7:35 PM 55.4 °F - - N/A% 29.84 in 10.0 mi Calm Calm - N/A   Clear
7:55 PM 53.6 °F - - N/A% 29.84 in 10.0 mi SSW 3.5 mph - N/A   Clear
8:15 PM 53.6 °F - - N/A% 29.84 in 10.0 mi SSW 4.6 mph - N/A   Clear
8:35 PM 53.6 °F - - N/A% 29.84 in 10.0 mi SSW 4.6 mph - N/A   Clear
8:55 PM 53.6 °F - - N/A% 29.83 in 10.0 mi SSW 3.5 mph - N/A   Clear
9:15 PM 50.0 °F - - N/A% 29.83 in 10.0 mi Calm Calm - N/A   Clear
9:35 PM 48.2 °F - - N/A% 29.83 in 10.0 mi SW 4.6 mph - N/A   Clear
9:55 PM 51.8 °F - - N/A% 29.82 in 10.0 mi SW 6.9 mph - N/A   Clear
10:15 PM 53.6 °F - - N/A% 29.82 in 10.0 mi SSW 6.9 mph - N/A   Clear
10:35 PM 55.4 °F - - N/A% 29.81 in 10.0 mi SSW 6.9 mph - N/A   Clear
10:55 PM 55.4 °F - - N/A% 29.81 in 10.0 mi SSW 5.8 mph - N/A   Clear
11:15 PM 55.4 °F - - N/A% 29.80 in 10.0 mi SW 9.2 mph - N/A   Clear
11:35 PM 55.4 °F - - N/A% 29.80 in 10.0 mi Calm Calm - N/A   Clear
11:55 PM 51.8 °F - - N/A% 29.79 in 10.0 mi SW 3.5 mph - N/A   Clear